Ukiah, CA

8:16 PM PDT on October 18, 2019 (GMT -0700)
Ukiah Municipal

Weather History for KUKI - September, 2019

Change the Weather History Date:

Monday, September 23, 2019

  Actual Average Record
Temperature  
Mean Temperature 72 °F 67 °F  
Max Temperature 90 °F 86 °F 108 °F (1964)
Min Temperature 53 °F 48 °F 33 °F (1902)
Degree Days  
Heating Degree Days 0 1  
Month to date heating degree days 4 13  
Since 1 July heating degree days 4 16  
Cooling Degree Days 6 3  
Month to date cooling degree days 111 111  
Year to date cooling degree days 1080 794  
Growing Degree Days 22 (Base 50)    
Moisture  
Dew Point 48 °F    
Average Humidity 53    
Maximum Humidity 93    
Minimum Humidity 17    
Precipitation  
Precipitation 0.00 in 0.01 in 1.24 in (1901)
Month to date precipitation 0.12 0.33  
Year to date precipitation 34.88 23.85  
Snow  
Snow 0.00 in - - ()
Month to date snowfall 0.0  
Since 1 July snowfall 0.0  
Since 1 September snowfall 0.0  
Snow Depth 0.00 in    
Sea Level Pressure  
Sea Level Pressure 29.97 in    
Wind  
Wind Speed 2 mph ()    
Max Wind Speed 12 mph    
Max Gust Speed 14 mph    
Visibility 9.7 miles    
Events      
T = Trace of Precipitation, MM = Missing Value Source: Averaged Metar Reports

Daily Weather History Graph

Daily Weather History Graph

Search for Another Location

Airport or City:

Astronomy

Sep. 23, 2019 Rise Set
Actual Time 7:01 AM PDT 7:08 PM PDT
Civil Twilight 6:34 AM PDT 7:35 PM PDT
Nautical Twilight 6:03 AM PDT 8:06 PM PDT
Astronomical Twilight 5:31 AM PDT 8:37 PM PDT
Moon 12:52 AM PDT (9/23) 4:04 PM PDT (9/23)
Length of Visible Light 13h 00m
Length of Day
12h 07m
Waning Crescent, 32% of the Moon is Illuminated
Sep 23
Waning Crescent
Sep 28
New
Oct 5
First Quarter
Oct 13
Full
Oct 21
Last Quarter

Hourly Weather History & Observations

Time (PDT) Temp. Dew Point Humidity Pressure Visibility Wind Dir Wind Speed Gust Speed Precip Events Conditions
12:56 AM 57.9 °F 54.0 °F 87% 29.93 in 10.0 mi Calm Calm - N/A   Clear
1:56 AM 59.0 °F 54.0 °F 83% 29.93 in 10.0 mi Calm Calm - N/A   Clear
2:56 AM 57.9 °F 54.0 °F 87% 29.92 in 10.0 mi WNW 4.6 mph - N/A   Clear
3:56 AM 55.0 °F 52.0 °F 89% 29.93 in 10.0 mi Calm Calm - N/A   Clear
4:56 AM 55.9 °F 52.0 °F 87% 29.94 in 10.0 mi Calm Calm - N/A   Clear
5:56 AM 55.0 °F 51.1 °F 86% 29.95 in 10.0 mi Calm Calm - N/A   Clear
6:56 AM 54.0 °F 51.1 °F 90% 29.98 in 10.0 mi North 3.5 mph - N/A   Clear
7:56 AM 55.0 °F 51.1 °F 86% 30.00 in 10.0 mi Calm Calm - N/A   Clear
8:56 AM 60.1 °F 53.1 °F 78% 30.01 in 10.0 mi Calm Calm - N/A   Clear
9:56 AM 64.9 °F 52.0 °F 63% 30.01 in 10.0 mi NW 3.5 mph - N/A   Clear
10:56 AM 71.1 °F 52.0 °F 51% 30.01 in 10.0 mi Variable 3.5 mph - N/A   Clear
11:56 AM 75.0 °F 51.1 °F 43% 29.99 in 10.0 mi Calm Calm - N/A   Clear
12:56 PM 82.0 °F 48.0 °F 30% 29.97 in 10.0 mi Variable 3.5 mph - N/A   Clear
1:56 PM 87.1 °F 42.1 °F 21% 29.94 in 10.0 mi North - - N/A   Clear
2:56 PM 90.0 °F 39.0 °F 17% 29.94 in 10.0 mi North - - N/A   Clear
3:56 PM 90.0 °F 41.0 °F 18% 29.94 in 10.0 mi North - - N/A   Clear
4:56 PM 88.0 °F 44.1 °F 22% 29.94 in 10.0 mi WNW 6.9 mph - N/A   Clear
5:24 PM 87.1 °F 45.0 °F 23% 29.97 in 2.0 mi NW 8.1 mph - N/A   Haze
5:33 PM 86.0 °F 45.0 °F 24% 29.96 in 10.0 mi NW 8.1 mph - N/A   Clear
5:56 PM 84.9 °F 43.0 °F 23% 29.95 in 10.0 mi Variable 3.5 mph - N/A   Clear
6:56 PM 82.0 °F 44.1 °F 26% 29.97 in 10.0 mi Calm Calm - N/A   Clear
7:56 PM 73.9 °F 45.0 °F 35% 29.98 in 10.0 mi Calm Calm - N/A   Clear
8:56 PM 70.0 °F 46.9 °F 44% 30.01 in 10.0 mi Calm Calm - N/A   Clear
9:56 PM 68.0 °F 48.0 °F 49% 30.02 in 10.0 mi NNW 3.5 mph - N/A   Clear
10:56 PM 64.9 °F 48.9 °F 56% 30.03 in 10.0 mi Calm Calm - N/A   Clear
11:56 PM 63.0 °F 48.9 °F 60% 30.04 in 10.0 mi Calm Calm - N/A   Clear